Skip Page Navigation
NASA JPL Caltech
NASA Logo - Jet Propulsion Laboratory + View the NASA Portal
+ Near-Earth Object (NEO) Project
Search JPL
JPL Home Earth Solar System Stars & Galaxies Technology
JPL Solar System Dynamics
BODIES ORBITS EPHEMERIDES TOOLS PHYSICAL DATA DISCOVERY FAQ SITE MAP
JPL Small-Body Database Browser
Search: [ help ]  
(2007 WD5)
Classification: Apollo [NEO]          SPK-ID: 3395991
Ephemeris | Orbit Diagram | Orbital Elements | Physical Parameters | Close-Approach Data ]

[ hide orbit diagram ]
Orbit Diagram
Note: Make sure you have Java enabled on your browser to see the applet. This applet is provided as a 3D orbit visualization tool. The applet was implemented using 2-body methods, and hence should not be used for determining accurate long-term trajectories (over several years or decades) or planetary encounter circumstances. For accurate long-term ephemerides, please instead use our Horizons system.
Orbit Viewer

Additional Notes: the orbits shown in the applet are color coded. The planets are white lines, and the asteroid/comet is a blue line. The bright white line indicates the portion of the orbit that is above the ecliptic plane, and the darker portion is below the ecliptic plane. Likewise for the asteroid/comet orbit, the light blue indicates the portion above the ecliptic plane, and the dark blue the portion below the ecliptic plane.

Orbit Viewer applet originally written and kindly provided by Osamu Ajiki (AstroArts), and further modified by Ron Baalke (JPL).


Orbital Elements at Epoch 2455200.5 (2010-Jan-04.0) TDB
Reference: JPL 13 (heliocentric ecliptic J2000)
 Element Value Uncertainty (1-sigma)   Units 
e .59782629653443 0.0012056  
a 2.461464987707066 0.018125 AU
q .9899364900569846 0.0043218 AU
i 2.425167000083214 0.01551 deg
node 68.41495815151387 0.31979 deg
peri 309.72083018 0.81041 deg
M 206.5632794113241 2.3619 deg
tp 2455801.695509199570
(2011-Aug-28.19550920)
15.895 JED
period 1410.55141482096
3.86
15.58
0.04266
d
yr
n .2552193392012544 0.0028189 deg/d
Q 3.932993485357148 0.02896 AU
  Orbit Determination Parameters
   # obs. used (total)      44  
   data-arc span      62 days  
   first obs. used      2007-11-08  
   last obs. used      2008-01-09  
   planetary ephem.      DE405  
   SB-pert. ephem.      SB405-CPV-2  
   quality code      5  
   fit RMS      .4094  
   data source      ORB  
   producer      Steven R. Chesley  
   solution date      2008-Jan-09 13:02:12  

Additional Information
 Earth MOID = .0260293 AU 
 T_jup = 3.216 
[ show covariance matrix ]

Ephemeris | Orbit Diagram | Orbital Elements | Physical Parameters | Close-Approach Data ]

Physical Parameter Table
Parameter Symbol Value Units Sigma Reference Notes
absolute magnitude H 24.308 mag .30097 13 autocmod 2.4a

[ show close-approach data ]
Ephemeris | Orbit Diagram | Orbital Elements | Physical Parameters | Close-Approach Data ]
ABOUT SSD CREDITS/AWARDS PRIVACY/COPYRIGHT GLOSSARY LINKS
FirstGov 2010-Feb-10 06:48 UT
(server date/time)  
NASA Home Page
Site Manager:   Donald K. Yeomans
Webmaster  Alan B. Chamberlin